Showing default

LEMUR 2 MARACHE-FRAN, 63262

Orbit data source: Space-Track

LEMUR 2 MARACHE-FRAN, 63262 is a payload satellite owned by Spire (US) in SSO that was launched on Sat, 15 Mar 2025 UTC via an FALCON 9 launch vehicle from the Air Force Western Test Range (AFWTR). Payload-class satellites include a variety of spacecraft equipped with specific instruments for various scientific and technological missions. These include communications satellites like Starlink; space stations such as the ISS; scientific satellites like the Hubble; Earth observation satellites from companies like Planet Labs, Umbra, and HawkEye 360; GPS; miniature CubeSats for education and research; and military/defense satellites.

Loading next visibility...
Identifier
63262, 2025-052BE
Orbit
SSO
Country
Flag of USUS
Related business
Manufacturer
Spire/Glasgow
Mission
Operational Commercial Com/MetRO
Bus & Motor
CUBESAT 6U, Unknown motor
Mass
10 kg wet, 10 kg dry
Launch date (UTC)
2025-03-15 (1 year ago)
Launch vehicle
FALCON 9
Launch site
Air Force Western Test Range (AFWTR)
Object type
Payload
Rocket body
Debris
Shape & HBR
Box, 14.5 m
Radar Cross Section
0.080 m², Small (<0.1 m²)

Expand to show TLE details & history
Last TLE update: 7 hours ago

TLE from 7 hours ago
0 LEMUR 2 MARACHE-FRAN
1 63262U 25052BE  26121.16706569  .00007880  00000-0  64524-3 0  9992
2 63262  97.6921  15.3545 0003450 166.1942 193.9376 14.99565715 61714
Epoch: 2026-05-01T04:00Z
TLE epoch observation values (Epoch: 2026-05-01T04:00:34.475Z)
Latitude
-0.00005°
Longitude
96.10765°
Altitude
573.618 km
Speed
7.573 km/s
True Right ascension
01h 01m 25s
True Declination
0° 00' 00"
Sunlit
Object was in daylight at epoch
Visualization orbit readout
Latitude
Unknown
Longitude
Unknown
Altitude
Unknown
Speed
Unknown
Apparent Right ascension
Unknown
Apparent Declination
Unknown
Sunlit
N/A
Visualization observer readout
Local Sidereal Time
18:12:34
Azimuth
Unknown
Elevation
Unknown
Doppler factor
Unknown
Orbital elements
Apogee altitude
567.638 km
Perigee altitude
562.847 km
Semi-major axis
6,943.38 km
Eccentricity
0.00035
Inclination
97.6921°
RAAN
15.3545°
Arg. of periapsis
166.1942°
True anomaly
193.92808°
Mean anomaly
193.9376°
Eccentric anomaly
193.93284°
Mean motion
3.75134 °/min
Orbital period
95.97 mins
BSTAR
0.00064524
Loading maneuver chart data...
Computing Atmospheric mass density...
Loading historical data...
Loading historical data...
Loading historical data...
Loading historical data...
Loading historical data...
Loading historical data...
Loading historical data...

Documentation

Showing up to 5 results
|